This is the latest recevied weather packets stored in our database for station/object WP4NYS-13. If no packets are shown the sender has not sent any weather packets the latest 1 day(s).
| Time | Temp. | Humidity | Pressure | Rain* | Wind** | Luminosity | Snow |
|---|---|---|---|---|---|---|---|
| 1778012559 | 31.67° C | 37% | 1015.3 hPa | 0 mm | 0.45 m/s, 199° | - | - |
| 1778012255 | 31.67° C | 37% | 1015.4 hPa | 0 mm | 1.79 m/s, 269° | - | - |
| 1778011953 | 31.67° C | 37% | 1015.6 hPa | 0 mm | 0.45 m/s, 189° | - | - |
| 1778011651 | 31.67° C | 36% | 1015.5 hPa | 0 mm | 0 m/s | - | - |
| 1778011348 | 32.22° C | 36% | 1015.6 hPa | 0 mm | 0.45 m/s, 260° | - | - |
| 1778011043 | 31.67° C | 37% | 1015.6 hPa | 0 mm | 0 m/s | - | - |
| 1778010741 | 31.67° C | 37% | 1015.7 hPa | 0 mm | 0.45 m/s, 108° | - | - |
| 1778010438 | 31.67° C | 37% | 1015.8 hPa | 0 mm | 0.45 m/s, 260° | - | - |
| 1778010134 | 31.11° C | 38% | 1015.8 hPa | 0 mm | 0.45 m/s, 144° | - | - |
| 1778009830 | 30.56° C | 39% | 1015.8 hPa | 0 mm | 0 m/s | - | - |
| 1778009528 | 30.56° C | 40% | 1015.8 hPa | 0 mm | 0.45 m/s, 271° | - | - |
| 1778009227 | 30.56° C | 39% | 1015.9 hPa | 0 mm | 0.45 m/s, 229° | - | - |
| 1778008923 | 30.56° C | 39% | 1015.9 hPa | 0 mm | 0.45 m/s, 69° | - | - |
| 1778008622 | 31.11° C | 39% | 1016.1 hPa | 0 mm | 0 m/s | - | - |
| 1778008319 | 31.11° C | 40% | 1016.1 hPa | 0 mm | 0.45 m/s, 123° | - | - |
| 1778008015 | 31.11° C | 39% | 1015.9 hPa | 0 mm | 0 m/s | - | - |
| 1778007715 | 30.56° C | 41% | 1016 hPa | 0 mm | 0.45 m/s, 159° | - | - |
| 1778007412 | 30° C | 41% | 1016.2 hPa | 0 mm | 0.45 m/s, 293° | - | - |
| 1778007109 | 29.44° C | 42% | 1016.2 hPa | 0 mm | 0 m/s | - | - |
| 1778006805 | 29.44° C | 42% | 1016.5 hPa | 0 mm | 0.45 m/s, 188° | - | - |
| 1778006502 | 29.44° C | 41% | 1016.2 hPa | 0 mm | 0.45 m/s, 145° | - | - |
| 1778006199 | 30° C | 42% | 1016.4 hPa | 0 mm | 0 m/s | - | - |
| 1778005897 | 29.44° C | 41% | 1016.4 hPa | 0 mm | 0.89 m/s, 158° | - | - |
| 1778005592 | 28.89° C | 43% | 1016.7 hPa | 0 mm | 0 m/s | - | - |
| 1778005290 | 29.44° C | 41% | 1016.8 hPa | 0 mm | 0.45 m/s, 39° | - | - |
* Rain latest hour (hover to see other rain measurements)
** Current wind speed in m/s (hover to see current wind gust speed)